Location: Austin
(30.3000°N, 97.7500°W)
Time: 11:33:38
(UTC-05:00)

CZ-4B R/B - Pass Details

Date: 05 September 2024
Orbit: 462 x 607 km, 97.9° (Epoch: 11 September)

Event Time Altitude Azimuth Distance (km) Brightness Sun altitude
Exits shadow 20:23:14 10° 113° (ESE) 1,647 4.6 -8.3°
Maximum altitude 20:25:36 18° 70° (ENE) 1,292 4.2 -8.8°
Drops below altitude 10° 20:28:07 10° 27° (NNE) 1,730 5.2 -9.3°
Sets 20:30:46 0° 8° (N) 2,652 6.4 -9.9°
